FALCON 9 R/B, 57046

Orbit data source: Space-Track

FALCON 9 R/B, 57046 is space debris in HEO originally from a launch on Sun, 18 Jun 2023 UTC launched from the Air Force Eastern Test Range (AFETR). Debris objects in space refer to the collection of defunct objects orbiting the Earth. Examples of debris include non-operational satellites, rocket bodies, and fragments generated from explosions, collisions, or faulty payload assembly.

Loading next visibility...
Identifier
57046, 2023-086B
Orbit
HEO
Country
Flag of USUS
Related business
Manufacturer
SpaceX
Mission
Spacecraft
Bus & Motor
F9ST2, Unknown motor
Mass
~4,000 kg wet, ~4,000 kg dry
Launch date (UTC)
2023-06-18 (3 years ago)
Launch vehicle
Unknown
Launch site
Air Force Eastern Test Range (AFETR)
Object type
Payload
Rocket body
Debris
Shape & HBR
Cyl, 7.8 m
Radar Cross Section
39.980 m², Large (>1 m²)

Expand to show TLE details & history
Last TLE update: 1 week ago

TLE from 1 week ago
0 FALCON 9 R/B
1 57046U 23086B   26154.69495526 -.00000303  00000-0 -17433-1 0  9992
2 57046  26.6329 214.0709 7807107 175.6832 201.8013  1.46549640 15445
Epoch: 2026-06-03T16:40Z
TLE epoch observation values (Epoch: 2026-06-03T16:40:44.134Z)
Latitude
-0.00005°
Longitude
71.77332°
Altitude
51,357.908 km
Speed
1.278 km/s
True Right ascension
14h 16m 25s
True Declination
0° 00' 00"
Sunlit
Object was in daylight at epoch
Visualization orbit readout
Latitude
Unknown
Longitude
Unknown
Altitude
Unknown
Speed
Unknown
Apparent Right ascension
Unknown
Apparent Declination
Unknown
Sunlit
N/A
Visualization observer readout
Local Sidereal Time
05:50:50
Azimuth
Unknown
Elevation
Unknown
Doppler factor
Unknown
Orbital elements
Apogee altitude
51,929.225 km
Perigee altitude
802.244 km
Semi-major axis
32,743.871 km
Eccentricity
0.78071
Inclination
26.6329°
RAAN
214.0709°
Arg. of periapsis
175.6832°
True anomaly
184.32534°
Mean anomaly
201.8013°
Eccentric anomaly
192.2842°
Mean motion
0.36631 °/min
Orbital period
982.78 mins
BSTAR
-0.017433
Loading maneuver chart data...
Computing Atmospheric mass density...
Loading historical data...
Loading historical data...
Loading historical data...
Loading historical data...
Loading historical data...
Loading historical data...
Loading historical data...
Other satellites on launch #86 in the year 2023 (2023-06-18 UTC)

Documentation

Showing up to 5 results
|